Regional Weather Roundup
Issued by NWS Little Rock, AR

Home | Current Version | Previous Version | Graphics & Text | Print | Product List | Glossary On
Versions: 1 2 3 4 5 6 7 8 9 10 11 12 13 14 15 16 17 18 19 20 21 22 23 24 25 26 27 28 29 30 31 32 33 34 35 36 37 38 39 40 41 42 43 44 45 46
000
ASUS44 KLZK 202305
RWRLZK

WEATHER ROUNDUP FOR ARKANSAS
NATIONAL WEATHER SERVICE LITTLE ROCK AR
600 PM CDT SAT SEP 20 2014

NOTE: "FAIR" INDICATES FEW OR NO CLOUDS BELOW 12,000 FEET WITH NO
SIGNIFICANT WEATHER AND/OR OBSTRUCTIONS TO VISIBILITY.

ARZ001-003-010-029-210000-
NORTHWEST ARKANSAS

CITY           SKY/WX    TMP DP  RH WIND       PRES   REMARKS
FAYETTEVILLE   SUNNY     81  67  62 S9        30.00F
FORT SMITH     MOSUNNY   87  64  46 VRB6      29.96F HX  88
HARRISON       MOSUNNY   82  68  62 VRB3      30.01R HX  85
BENTONVILLE    SUNNY     82  64  54 SW9       30.02R
ROGERS         MOSUNNY   82  66  58 SW9       30.02R
SILOAM SPGS    SUNNY     82  64  54 SW9       30.01R
HIGHFILL       SUNNY     81  66  60 W7        30.01R
SPRINGDALE     MOSUNNY   82  64  54 SW9       30.02F
$$

ARZ004-005-016-210000-
NORTH CENTRAL ARKANSAS

CITY           SKY/WX    TMP DP  RH WIND       PRES   REMARKS
BATESVILLE     MOSUNNY   90  64  43 SW6       29.95F HX  91
FLIPPIN        SUNNY     86  63  45 S5        29.98R HX  87
MTN HOME       MOSUNNY   85  66  53 SW3       29.97S HX  87
$$

ARZ040-041-210000-
WEST CENTRAL ARKANSAS

CITY           SKY/WX    TMP DP  RH WIND       PRES   REMARKS
MENA           SUNNY     88  66  48 CALM      30.01S HX  90
MOUNT IDA      SUNNY     83  70  64 CALM      29.98S HX  87
$$

ARZ009-017-025-026-028-210000-
NORTHEAST ARKANSAS

CITY           SKY/WX    TMP DP  RH WIND       PRES   REMARKS
CORNING        LGT RAIN  86  70  58 SW3       29.96F HX  90
JONESBORO      PTSUNNY   89  64  43 SW3       29.95F HX  90
NEWPORT        MOSUNNY   88  67  49 S7        29.96F HX  91
WALNUT RIDGE   MOSUNNY   88  66  48 CALM      29.94F HX  90
BLYTHEVILLE    PTSUNNY   84  72  67 S5        29.97S HX  89
$$

ARZ022-023-033-042-044-210000-
CENTRAL ARKANSAS

CITY           SKY/WX    TMP DP  RH WIND       PRES   REMARKS
LITTLE ROCK    PTSUNNY   87  65  47 SW3       29.96F HX  89
N LITTLE ROCK  PTSUNNY   86  68  54 NW3       29.96F HX  89
JACKSONVILLE   PTSUNNY   87  69  54 NW3       29.97S HX  91
SEARCY         PTSUNNY   87  69  54 S6        29.97S HX  91
HOT SPRINGS    SUNNY     87  65  47 CALM      29.98F HX  89
RUSSELLVILLE   SUNNY     86  68  54 SW3       29.96F HX  89
CLINTON        FAIR      86  72  62 SW5       29.96F HX  92
$$

ARZ036-210000-
EAST ARKANSAS

CITY           SKY/WX    TMP DP  RH WIND       PRES   REMARKS
WEST MEMPHIS   PTSUNNY   86  69  56 S8        29.96R HX  90
$$

ARZ050-053-066-070-073-210000-
SOUTHWEST ARKANSAS

CITY           SKY/WX    TMP DP  RH WIND       PRES   REMARKS
ARKADELPHIA    FAIR      88  69  53 CALM      29.96F HX  92
CAMDEN         SUNNY     90  66  45 N5        29.95F HX  92
TEXARKANA      SUNNY     86  68  54 E3        29.96F HX  89
EL DORADO      MOSUNNY   88  67  49 NE5       29.96F HX  91
DE QUEEN       SUNNY     87  68  52 CALM      29.95S HX  90
$$

ARZ056-057-069-210000-
SOUTHEAST ARKANSAS

CITY           SKY/WX    TMP DP  RH WIND       PRES   REMARKS
PINE BLUFF     MOSUNNY   89  63  41 CALM      29.95F HX  90
STUTTGART      PTSUNNY   88  64  45 E3        29.97F HX  89
MONTICELLO     MOSUNNY   89  65  44 N3        29.95F HX  91

$$




USA.gov is the U.S. government's official web portal to all federal, state and local government web resources and services.